| time (UTC) | temp F | wind direction | speed MPH | gust MPH | rain 1hr in | rain 24hr in | rain mn in | humidity % | barometer mb |
| 20260510002027 | 69 | 96 | 5.0 | 8.0 | 0.00 | 0.00 | 0.00 | 77 | 1010.9 |
| 20260510001523 | 69 | 96 | 4.0 | 8.0 | 0.00 | 0.00 | 0.00 | 76 | 1010.7 |
| 20260510001023 | 69 | 96 | 4.0 | 7.0 | 0.00 | 0.00 | 0.00 | 76 | 1010.7 |
| 20260510000523 | 69 | 96 | 2.0 | 8.0 | 0.00 | 0.00 | 0.00 | 75 | 1010.6 |
| 20260509235523 | 69 | 96 | 3.0 | 8.0 | 0.00 | 0.00 | 0.00 | 75 | 1010.4 |
| 20260509235028 | 69 | 96 | 4.0 | 10.0 | 0.00 | 0.00 | 0.00 | 75 | 1010.4 |
| 20260509234531 | 69 | 96 | 6.0 | 10.0 | 0.00 | 0.00 | 0.00 | 74 | 1010.3 |
| 20260509234022 | 70 | 96 | 3.0 | 8.0 | 0.00 | 0.00 | 0.00 | 74 | 1010.3 |
| 20260509233524 | 70 | 96 | 3.0 | 7.0 | 0.00 | 0.00 | 0.00 | 74 | 1010.3 |
| 20260509233023 | 70 | 96 | 3.0 | 12.0 | 0.00 | 0.00 | 0.00 | 74 | 1010.2 |
| 20260509232525 | 70 | 96 | 5.0 | 12.0 | 0.00 | 0.00 | 0.00 | 74 | 1010.2 |
| 20260509232022 | 70 | 96 | 5.0 | 9.0 | 0.00 | 0.00 | 0.00 | 73 | 1010.1 |
| 20260509231523 | 70 | 96 | 3.0 | 9.0 | 0.00 | 0.00 | 0.00 | 73 | 1010.0 |
| 20260509231027 | 71 | 96 | 3.0 | 10.0 | 0.00 | 0.00 | 0.00 | 73 | 1010.0 |
| 20260509230522 | 71 | 96 | 7.0 | 13.0 | 0.00 | 0.00 | 0.00 | 72 | 1010.1 |
| 20260509225523 | 71 | 96 | 4.0 | 14.0 | 0.00 | 0.00 | 0.00 | 72 | 1010.0 |
| 20260509225022 | 71 | 96 | 6.0 | 14.0 | 0.00 | 0.00 | 0.00 | 72 | 1010.0 |
| 20260509224521 | 71 | 96 | 9.0 | 13.0 | 0.00 | 0.00 | 0.00 | 72 | 1010.0 |
| 20260509224021 | 71 | 96 | 8.0 | 15.0 | 0.00 | 0.00 | 0.00 | 71 | 1009.8 |
| 20260509223522 | 71 | 96 | 8.0 | 15.0 | 0.00 | 0.00 | 0.00 | 71 | 1009.8 |
| 20260509223022 | 71 | 96 | 7.0 | 13.0 | 0.00 | 0.00 | 0.00 | 70 | 1009.9 |
| 20260509222522 | 71 | 96 | 8.0 | 16.0 | 0.00 | 0.00 | 0.00 | 70 | 1009.9 |
| 20260509222021 | 72 | 96 | 8.0 | 16.0 | 0.00 | 0.00 | 0.00 | 70 | 1009.9 |
| 20260509221521 | 72 | 96 | 11.0 | 16.0 | 0.00 | 0.00 | 0.00 | 68 | 1009.8 |
| 20260509221021 | 72 | 96 | 6.0 | 12.0 | 0.00 | 0.00 | 0.00 | 69 | 1009.7 |
| 20260509220520 | 72 | 96 | 7.0 | 15.0 | 0.00 | 0.00 | 0.00 | 68 | 1009.6 |
| 20260509215521 | 72 | 96 | 9.0 | 14.0 | 0.00 | 0.00 | 0.00 | 68 | 1009.4 |
| 20260509215021 | 72 | 96 | 9.0 | 16.0 | 0.00 | 0.00 | 0.00 | 69 | 1009.3 |
| 20260509214522 | 71 | 96 | 10.0 | 16.0 | 0.00 | 0.00 | 0.00 | 69 | 1009.1 |
| 20260509214022 | 72 | 96 | 9.0 | 15.0 | 0.00 | 0.00 | 0.00 | 68 | 1009.1 |
| 20260509213520 | 72 | 96 | 10.0 | 16.0 | 0.00 | 0.00 | 0.00 | 68 | 1009.0 |
| 20260509213020 | 72 | 96 | 8.0 | 16.0 | 0.00 | 0.00 | 0.00 | 69 | 1009.1 |
| 20260509212520 | 72 | 96 | 7.0 | 17.0 | 0.00 | 0.00 | 0.00 | 69 | 1009.3 |
| 20260509212022 | 72 | 96 | 10.0 | 19.0 | 0.00 | 0.00 | 0.00 | 68 | 1009.2 |
| 20260509211519 | 72 | 96 | 8.0 | 19.0 | 0.00 | 0.00 | 0.00 | 68 | 1009.2 |
| 20260509211019 | 73 | 96 | 9.0 | 17.0 | 0.00 | 0.00 | 0.00 | 67 | 1009.1 |
| 20260509210520 | 73 | 96 | 5.0 | 15.0 | 0.00 | 0.00 | 0.00 | 68 | 1009.2 |
| 20260509205521 | 73 | 96 | 8.0 | 15.0 | 0.00 | 0.00 | 0.00 | 68 | 1009.1 |
| 20260509205027 | 73 | 96 | 7.0 | 12.0 | 0.00 | 0.00 | 0.00 | 67 | 1009.1 |
| 20260509204520 | 73 | 96 | 7.0 | 15.0 | 0.00 | 0.00 | 0.00 | 68 | 1009.0 |
| 20260509204120 | 73 | 96 | 8.0 | 15.0 | 0.00 | 0.00 | 0.00 | 67 | 1009.0 |
| 20260509203521 | 72 | 96 | 5.0 | 14.0 | 0.00 | 0.00 | 0.00 | 68 | 1009.0 |
| 20260509203020 | 73 | 96 | 8.0 | 14.0 | 0.00 | 0.00 | 0.00 | 67 | 1009.2 |
| 20260509202520 | 73 | 96 | 5.0 | 15.0 | 0.00 | 0.00 | 0.00 | 67 | 1009.2 |
| 20260509202020 | 73 | 96 | 9.0 | 15.0 | 0.00 | 0.00 | 0.00 | 67 | 1009.2 |
| 20260509201519 | 73 | 96 | 5.0 | 12.0 | 0.00 | 0.00 | 0.00 | 67 | 1009.1 |
| 20260509201019 | 73 | 96 | 6.0 | 13.0 | 0.00 | 0.00 | 0.00 | 66 | 1009.1 |
| 20260509200518 | 73 | 96 | 6.0 | 14.0 | 0.00 | 0.00 | 0.00 | 67 | 1009.0 |
| 20260509195521 | 73 | 96 | 8.0 | 15.0 | 0.00 | 0.00 | 0.00 | 66 | 1009.0 |
| 20260509195015 | 73 | 96 | 6.0 | 15.0 | 0.00 | 0.00 | 0.00 | 66 | 1009.3 |
| 20260509194515 | 73 | 96 | 8.0 | 14.0 | 0.00 | 0.00 | 0.00 | 66 | 1009.4 |
| 20260509194015 | 73 | 96 | 7.0 | 14.0 | 0.00 | 0.00 | 0.00 | 65 | 1009.4 |
| 20260509193514 | 73 | 96 | 6.0 | 15.0 | 0.00 | 0.00 | 0.00 | 65 | 1009.4 |
| 20260509193014 | 73 | 96 | 7.0 | 14.0 | 0.00 | 0.00 | 0.00 | 65 | 1009.4 |
| 20260509192514 | 73 | 96 | 7.0 | 12.0 | 0.00 | 0.00 | 0.00 | 63 | 1009.4 |
| 20260509192015 | 73 | 96 | 7.0 | 15.0 | 0.00 | 0.00 | 0.00 | 63 | 1009.4 |
| 20260509191512 | 73 | 96 | 9.0 | 12.0 | 0.00 | 0.00 | 0.00 | 63 | 1009.3 |
| 20260509191012 | 73 | 96 | 6.0 | 14.0 | 0.00 | 0.00 | 0.00 | 65 | 1009.3 |
| 20260509190512 | 73 | 96 | 5.0 | 14.0 | 0.00 | 0.00 | 0.00 | 64 | 1009.4 |
| 20260509185511 | 72 | 96 | 1.0 | 13.0 | 0.00 | 0.00 | 0.00 | 66 | 1009.3 |
| 20260509185010 | 72 | 96 | 8.0 | 14.0 | 0.00 | 0.00 | 0.00 | 65 | 1009.5 |
| 20260509184508 | 72 | 96 | 6.0 | 14.0 | 0.00 | 0.00 | 0.00 | 65 | 1009.7 |
| 20260509184008 | 71 | 96 | 6.0 | 14.0 | 0.00 | 0.00 | 0.00 | 66 | 1009.9 |
| 20260509183508 | 71 | 96 | 9.0 | 16.0 | 0.00 | 0.00 | 0.00 | 66 | 1009.9 |
| 20260509183008 | 72 | 96 | 11.0 | 16.0 | 0.00 | 0.00 | 0.00 | 66 | 1009.9 |
| 20260509182507 | 71 | 96 | 4.0 | 13.0 | 0.00 | 0.00 | 0.00 | 66 | 1009.8 |
| 20260509182007 | 72 | 96 | 10.0 | 13.0 | 0.00 | 0.00 | 0.00 | 65 | 1010.0 |
| 20260509181506 | 71 | 96 | 2.0 | 10.0 | 0.00 | 0.00 | 0.00 | 64 | 1010.0 |
| 20260509181006 | 71 | 96 | 7.0 | 10.0 | 0.00 | 0.00 | 0.00 | 63 | 1010.0 |
| 20260509180506 | 71 | 96 | 3.0 | 11.0 | 0.00 | 0.00 | 0.00 | 65 | 1010.0 |
| 20260509175507 | 71 | 96 | 8.0 | 11.0 | 0.00 | 0.00 | 0.00 | 64 | 1010.1 |
| 20260509175012 | 72 | 96 | 4.0 | 9.0 | 0.00 | 0.00 | 0.00 | 63 | 1010.1 |
| 20260509174512 | 71 | 96 | 4.0 | 11.0 | 0.00 | 0.00 | 0.00 | 64 | 1010.3 |
| 20260509174007 | 70 | 96 | 6.0 | 12.0 | 0.00 | 0.00 | 0.00 | 65 | 1010.3 |
| 20260509173505 | 70 | 96 | 6.0 | 12.0 | 0.00 | 0.00 | 0.00 | 65 | 1010.4 |
| 20260509173005 | 72 | 96 | 1.0 | 12.0 | 0.00 | 0.00 | 0.00 | 62 | 1010.5 |
| 20260509172503 | 71 | 96 | 5.0 | 12.0 | 0.00 | 0.00 | 0.00 | 64 | 1010.5 |
| 20260509172003 | 71 | 96 | 1.0 | 11.0 | 0.00 | 0.00 | 0.00 | 65 | 1010.6 |
| 20260509171503 | 71 | 96 | 6.0 | 10.0 | 0.00 | 0.00 | 0.00 | 64 | 1010.6 |
| 20260509171003 | 70 | 96 | 2.0 | 10.0 | 0.00 | 0.00 | 0.00 | 64 | 1010.7 |
| 20260509170503 | 71 | 96 | 3.0 | 10.0 | 0.00 | 0.00 | 0.00 | 63 | 1010.6 |
| 20260509165559 | 69 | 96 | 1.0 | 9.0 | 0.00 | 0.00 | 0.00 | 68 | 1010.9 |
| 20260509165059 | 69 | 96 | 1.0 | 11.0 | 0.00 | 0.00 | 0.00 | 67 | 1010.9 |
| 20260509164558 | 68 | 96 | 6.0 | 12.0 | 0.00 | 0.00 | 0.00 | 67 | 1011.0 |
| 20260509164058 | 68 | 96 | 6.0 | 12.0 | 0.00 | 0.00 | 0.00 | 67 | 1011.1 |
| 20260509163557 | 68 | 96 | 5.0 | 12.0 | 0.00 | 0.00 | 0.00 | 68 | 1011.1 |
| 20260509163107 | 68 | 96 | 8.0 | 14.0 | 0.00 | 0.00 | 0.00 | 68 | 1011.1 |
| 20260509162557 | 68 | 96 | 8.0 | 14.0 | 0.00 | 0.00 | 0.00 | 68 | 1011.1 |
| 20260509162055 | 68 | 96 | 4.0 | 8.0 | 0.00 | 0.00 | 0.00 | 68 | 1011.3 |
| 20260509161556 | 68 | 96 | 6.0 | 11.0 | 0.00 | 0.00 | 0.00 | 66 | 1011.3 |
| 20260509161055 | 68 | 96 | 3.0 | 11.0 | 0.00 | 0.00 | 0.00 | 69 | 1011.4 |
| 20260509160555 | 68 | 96 | 6.0 | 10.0 | 0.00 | 0.00 | 0.00 | 67 | 1011.4 |
| 20260509155556 | 68 | 96 | 3.0 | 10.0 | 0.00 | 0.00 | 0.00 | 69 | 1011.5 |
| 20260509155054 | 67 | 96 | 5.0 | 11.0 | 0.00 | 0.00 | 0.00 | 69 | 1011.7 |
| 20260509154553 | 67 | 96 | 7.0 | 13.0 | 0.00 | 0.00 | 0.00 | 70 | 1011.7 |
| 20260509154055 | 67 | 96 | 5.0 | 13.0 | 0.00 | 0.00 | 0.00 | 69 | 1011.7 |
| 20260509153552 | 67 | 96 | 5.0 | 11.0 | 0.00 | 0.00 | 0.00 | 70 | 1011.7 |
| 20260509153051 | 66 | 96 | 5.0 | 12.0 | 0.00 | 0.00 | 0.00 | 69 | 1011.8 |
| 20260509152553 | 66 | 96 | 6.0 | 10.0 | 0.00 | 0.00 | 0.00 | 69 | 1011.7 |
| 20260509152051 | 66 | 96 | 5.0 | 9.0 | 0.00 | 0.00 | 0.00 | 70 | 1011.6 |
| 20260509151549 | 66 | 96 | 3.0 | 10.0 | 0.00 | 0.00 | 0.00 | 71 | 1011.6 |
| 20260509151051 | 65 | 96 | 5.0 | 10.0 | 0.00 | 0.00 | 0.00 | 70 | 1011.6 |
| 20260509150547 | 65 | 96 | 2.0 | 10.0 | 0.00 | 0.00 | 0.00 | 71 | 1011.7 |
| 20260509145547 | 65 | 96 | 2.0 | 10.0 | 0.00 | 0.00 | 0.00 | 71 | 1011.3 |
| 20260509145051 | 65 | 96 | 4.0 | 10.0 | 0.00 | 0.00 | 0.00 | 72 | 1011.4 |
| 20260509144639 | 65 | 96 | 3.0 | 9.0 | 0.00 | 0.00 | 0.00 | 73 | 1011.4 |
| 20260509144049 | 64 | 96 | 3.0 | 9.0 | 0.00 | 0.00 | 0.00 | 74 | 1011.6 |
| 20260509143545 | 64 | 96 | 4.0 | 8.0 | 0.00 | 0.00 | 0.00 | 74 | 1011.5 |
| 20260509143048 | 64 | 96 | 3.0 | 10.0 | 0.00 | 0.00 | 0.00 | 74 | 1011.5 |
| 20260509142548 | 63 | 96 | 4.0 | 10.0 | 0.00 | 0.00 | 0.00 | 75 | 1011.7 |
| 20260509142042 | 63 | 96 | 2.0 | 10.0 | 0.00 | 0.00 | 0.00 | 76 | 1011.6 |
| 20260509141544 | 63 | 96 | 4.0 | 10.0 | 0.00 | 0.00 | 0.00 | 76 | 1011.7 |
| 20260509141041 | 62 | 96 | 2.0 | 7.0 | 0.00 | 0.00 | 0.00 | 76 | 1011.8 |
| 20260509140540 | 63 | 96 | 1.0 | 4.0 | 0.00 | 0.00 | 0.00 | 75 | 1012.0 |
| 20260509135539 | 61 | 96 | 0.0 | 3.0 | 0.00 | 0.00 | 0.00 | 76 | 1012.0 |
| 20260509135038 | 61 | 96 | 0.0 | 2.0 | 0.00 | 0.00 | 0.00 | 77 | 1012.1 |
| 20260509134537 | 60 | 96 | 0.0 | 4.0 | 0.00 | 0.00 | 0.00 | 77 | 1011.9 |
| 20260509134035 | 60 | 96 | 0.0 | 6.0 | 0.00 | 0.00 | 0.00 | 78 | 1011.8 |
| 20260509133538 | 60 | 96 | 2.0 | 6.0 | 0.00 | 0.00 | 0.00 | 78 | 1011.7 |
| 20260509133035 | 59 | 96 | 1.0 | 4.0 | 0.00 | 0.00 | 0.00 | 78 | 1011.7 |
| 20260509132533 | 59 | 96 | 0.0 | 4.0 | 0.00 | 0.00 | 0.00 | 79 | 1011.8 |
| 20260509132033 | 58 | 96 | 0.0 | 4.0 | 0.00 | 0.00 | 0.00 | 80 | 1012.0 |
| 20260509131538 | 58 | 96 | 1.0 | 4.0 | 0.00 | 0.00 | 0.00 | 80 | 1012.0 |
| 20260509131029 | 57 | 96 | 2.0 | 7.0 | 0.00 | 0.00 | 0.00 | 80 | 1012.2 |
| 20260509130529 | 57 | 96 | 1.0 | 8.0 | 0.00 | 0.00 | 0.00 | 81 | 1012.3 |
| 20260509125526 | 57 | 96 | 0.0 | 11.0 | 0.00 | 0.00 | 0.00 | 82 | 1012.4 |
| 20260509125024 | 56 | 96 | 1.0 | 11.0 | 0.00 | 0.00 | 0.00 | 83 | 1012.4 |
| 20260509124526 | 56 | 96 | 5.0 | 7.0 | 0.00 | 0.00 | 0.00 | 83 | 1012.7 |
| 20260509124024 | 56 | 96 | 0.0 | 4.0 | 0.00 | 0.00 | 0.00 | 83 | 1012.6 |
| 20260509123523 | 56 | 96 | 0.0 | 1.0 | 0.00 | 0.00 | 0.00 | 85 | 1012.7 |
| 20260509123022 | 55 | 96 | 0.0 | 1.0 | 0.00 | 0.00 | 0.00 | 86 | 1012.6 |
| 20260509122521 | 54 | 96 | 0.0 | 1.0 | 0.00 | 0.00 | 0.00 | 86 | 1012.7 |
| 20260509122024 | 54 | 96 | 0.0 | 1.0 | 0.00 | 0.00 | 0.00 | 86 | 1012.6 |
| 20260509121526 | 54 | 96 | 0.0 | 1.0 | 0.00 | 0.00 | 0.00 | 88 | 1012.8 |
| 20260509121021 | 53 | 96 | 0.0 | 1.0 | 0.00 | 0.00 | 0.00 | 89 | 1012.9 |
| 20260509120520 | 53 | 96 | 0.0 | 1.0 | 0.00 | 0.00 | 0.00 | 91 | 1012.9 |
| 20260509115522 | 51 | 96 | 0.0 | 2.0 | 0.00 | 0.00 | 0.00 | 92 | 1012.8 |
| 20260509115023 | 50 | 96 | 0.0 | 2.0 | 0.00 | 0.00 | 0.00 | 92 | 1013.0 |
| 20260509114522 | 50 | 96 | 0.0 | 1.0 | 0.00 | 0.00 | 0.00 | 92 | 1013.0 |
| 20260509114022 | 50 | 96 | 0.0 | 1.0 | 0.00 | 0.00 | 0.00 | 93 | 1013.0 |
| 20260509113524 | 50 | 96 | 0.0 | 3.0 | 0.00 | 0.00 | 0.00 | 93 | 1012.7 |
| 20260509113020 | 50 | 96 | 0.0 | 3.0 | 0.00 | 0.00 | 0.00 | 93 | 1012.8 |
| 20260509112521 | 49 | 96 | 1.0 | 2.0 | 0.00 | 0.00 | 0.00 | 94 | 1012.7 |
| 20260509112022 | 49 | 96 | 0.0 | 2.0 | 0.00 | 0.00 | 0.00 | 94 | 1012.9 |
| 20260509111520 | 49 | 96 | 0.0 | 0.0 | 0.00 | 0.00 | 0.00 | 94 | 1012.9 |
| 20260509111025 | 49 | 96 | 0.0 | 1.0 | 0.00 | 0.00 | 0.00 | 94 | 1012.7 |
| 20260509110520 | 49 | 96 | 0.0 | 3.0 | 0.00 | 0.00 | 0.00 | 94 | 1012.4 |
| 20260509105520 | 49 | 96 | 0.0 | 6.0 | 0.00 | 0.00 | 0.00 | 93 | 1012.5 |
| 20260509105020 | 49 | 96 | 2.0 | 6.0 | 0.00 | 0.00 | 0.00 | 93 | 1012.6 |
| 20260509104530 | 49 | 96 | 0.0 | 0.0 | 0.00 | 0.00 | 0.00 | 94 | 1012.6 |
| 20260509104018 | 49 | 96 | 0.0 | 3.0 | 0.00 | 0.00 | 0.00 | 93 | 1012.6 |
| 20260509103518 | 49 | 96 | 1.0 | 3.0 | 0.00 | 0.00 | 0.00 | 93 | 1012.6 |
| 20260509103019 | 49 | 96 | 2.0 | 3.0 | 0.00 | 0.00 | 0.00 | 93 | 1012.5 |
| 20260509102521 | 49 | 96 | 0.0 | 1.0 | 0.00 | 0.00 | 0.00 | 94 | 1012.4 |
| 20260509102018 | 49 | 96 | 0.0 | 3.0 | 0.00 | 0.00 | 0.00 | 94 | 1012.4 |
| 20260509101519 | 49 | 96 | 0.0 | 3.0 | 0.00 | 0.00 | 0.00 | 94 | 1012.5 |
| 20260509101017 | 49 | 96 | 1.0 | 3.0 | 0.00 | 0.00 | 0.00 | 94 | 1012.4 |
| 20260509100518 | 49 | 96 | 0.0 | 0.0 | 0.00 | 0.00 | 0.00 | 94 | 1012.4 |
| 20260509095520 | 49 | 96 | 0.0 | 0.0 | 0.00 | 0.00 | 0.00 | 94 | 1012.3 |
| 20260509095020 | 49 | 96 | 0.0 | 0.0 | 0.00 | 0.00 | 0.00 | 94 | 1012.2 |
| 20260509094521 | 49 | 96 | 0.0 | 0.0 | 0.00 | 0.00 | 0.00 | 94 | 1012.0 |
| 20260509094017 | 49 | 96 | 0.0 | 0.0 | 0.00 | 0.00 | 0.00 | 94 | 1012.1 |
| 20260509093517 | 49 | 96 | 0.0 | 0.0 | 0.00 | 0.00 | 0.00 | 94 | 1012.1 |
| 20260509093017 | 49 | 96 | 0.0 | 0.0 | 0.00 | 0.00 | 0.00 | 94 | 1011.9 |
| 20260509092516 | 49 | 96 | 0.0 | 0.0 | 0.00 | 0.00 | 0.00 | 94 | 1012.0 |
| 20260509092015 | 49 | 96 | 0.0 | 0.0 | 0.00 | 0.00 | 0.00 | 94 | 1012.1 |
| 20260509091517 | 49 | 96 | 0.0 | 0.0 | 0.00 | 0.00 | 0.00 | 94 | 1012.1 |
| 20260509091015 | 49 | 96 | 0.0 | 0.0 | 0.00 | 0.00 | 0.00 | 94 | 1012.2 |
| 20260509090515 | 49 | 96 | 0.0 | 0.0 | 0.00 | 0.00 | 0.00 | 93 | 1012.2 |
| 20260509085514 | 49 | 96 | 0.0 | 0.0 | 0.00 | 0.00 | 0.00 | 94 | 1012.1 |
| 20260509085020 | 49 | 96 | 0.0 | 0.0 | 0.00 | 0.00 | 0.00 | 93 | 1012.0 |
| 20260509084517 | 49 | 96 | 0.0 | 0.0 | 0.00 | 0.00 | 0.00 | 94 | 1012.1 |
| 20260509084014 | 50 | 96 | 0.0 | 0.0 | 0.00 | 0.00 | 0.00 | 94 | 1012.2 |
| 20260509083512 | 50 | 96 | 0.0 | 0.0 | 0.00 | 0.00 | 0.00 | 94 | 1012.0 |
| 20260509083018 | 50 | 96 | 0.0 | 0.0 | 0.00 | 0.00 | 0.00 | 94 | 1012.2 |
| 20260509082516 | 50 | 96 | 0.0 | 0.0 | 0.00 | 0.00 | 0.00 | 94 | 1012.2 |
| 20260509082011 | 50 | 96 | 0.0 | 3.0 | 0.00 | 0.00 | 0.00 | 93 | 1012.2 |
| 20260509081520 | 50 | 96 | 0.0 | 4.0 | 0.00 | 0.00 | 0.00 | 93 | 1012.3 |
| 20260509081012 | 50 | 96 | 2.0 | 6.0 | 0.00 | 0.00 | 0.00 | 93 | 1012.3 |
| 20260509080511 | 50 | 96 | 3.0 | 6.0 | 0.00 | 0.00 | 0.00 | 93 | 1012.3 |
| 20260509075610 | 50 | 96 | 0.0 | 3.0 | 0.00 | 0.00 | 0.00 | 93 | 1012.2 |
| 20260509075011 | 50 | 96 | 0.0 | 3.0 | 0.00 | 0.00 | 0.00 | 92 | 1012.2 |
| 20260509074508 | 50 | 96 | 0.0 | 1.0 | 0.00 | 0.00 | 0.00 | 92 | 1012.3 |
| 20260509074006 | 51 | 96 | 0.0 | 0.0 | 0.00 | 0.00 | 0.00 | 92 | 1012.3 |
| 20260509073506 | 51 | 96 | 0.0 | 3.0 | 0.00 | 0.00 | 0.00 | 91 | 1012.2 |
| 20260509073007 | 51 | 96 | 0.0 | 3.0 | 0.00 | 0.00 | 0.00 | 91 | 1012.4 |
| 20260509072504 | 51 | 96 | 0.0 | 1.0 | 0.00 | 0.00 | 0.00 | 91 | 1012.5 |
| 20260509072003 | 52 | 96 | 0.0 | 1.0 | 0.00 | 0.00 | 0.00 | 90 | 1012.6 |
| 20260509071502 | 52 | 96 | 0.0 | 1.0 | 0.00 | 0.00 | 0.00 | 91 | 1012.5 |
| 20260509071002 | 52 | 96 | 0.0 | 1.0 | 0.00 | 0.00 | 0.00 | 90 | 1012.6 |
| 20260509070502 | 52 | 96 | 0.0 | 1.0 | 0.00 | 0.00 | 0.00 | 90 | 1012.7 |
| 20260509070200 | 52 | 96 | 0.0 | 0.0 | 0.00 | 0.00 | 0.00 | 90 | 1012.8 |
| 20260509065501 | 52 | 96 | 0.0 | 0.0 | 0.00 | 0.00 | 0.00 | 90 | 1012.8 |
| 20260509065001 | 53 | 96 | 0.0 | 1.0 | 0.00 | 0.00 | 0.00 | 90 | 1013.0 |
| 20260509064502 | 53 | 96 | 0.0 | 1.0 | 0.00 | 0.00 | 0.00 | 89 | 1013.0 |
| 20260509064100 | 53 | 96 | 0.0 | 1.0 | 0.00 | 0.00 | 0.00 | 89 | 1013.0 |
| 20260509063600 | 53 | 96 | 0.0 | 1.0 | 0.00 | 0.00 | 0.00 | 89 | 1013.1 |
| 20260509063058 | 53 | 96 | 0.0 | 1.0 | 0.00 | 0.00 | 0.00 | 89 | 1013.1 |
| 20260509062558 | 53 | 96 | 0.0 | 1.0 | 0.00 | 0.00 | 0.00 | 89 | 1013.3 |
| 20260509062101 | 53 | 96 | 0.0 | 1.0 | 0.00 | 0.00 | 0.00 | 89 | 1013.3 |
| 20260509061559 | 53 | 96 | 0.0 | 1.0 | 0.00 | 0.00 | 0.00 | 89 | 1013.4 |
| 20260509061056 | 53 | 96 | 0.0 | 1.0 | 0.00 | 0.00 | 0.00 | 89 | 1013.4 |
| 20260509060556 | 53 | 96 | 0.0 | 1.0 | 0.00 | 0.00 | 0.00 | 89 | 1013.5 |
| 20260509060156 | 53 | 96 | 0.0 | 1.0 | 0.00 | 0.00 | 0.00 | 89 | 1013.5 |
| 20260509055555 | 53 | 96 | 0.0 | 1.0 | 0.00 | 0.00 | 0.00 | 88 | 1013.6 |
| 20260509055053 | 53 | 96 | 0.0 | 1.0 | 0.00 | 0.00 | 0.00 | 88 | 1013.7 |
| 20260509054607 | 54 | 96 | 0.0 | 2.0 | 0.00 | 0.00 | 0.00 | 88 | 1013.7 |
| 20260509054056 | 54 | 96 | 0.0 | 2.0 | 0.00 | 0.00 | 0.00 | 88 | 1013.9 |
| 20260509053551 | 54 | 96 | 0.0 | 1.0 | 0.00 | 0.00 | 0.00 | 87 | 1013.9 |
| 20260509053052 | 54 | 96 | 0.0 | 1.0 | 0.00 | 0.00 | 0.00 | 87 | 1014.0 |
| 20260509052550 | 54 | 96 | 0.0 | 2.0 | 0.00 | 0.00 | 0.00 | 86 | 1014.1 |
| 20260509052047 | 55 | 96 | 0.0 | 2.0 | 0.00 | 0.00 | 0.00 | 85 | 1014.1 |
| 20260509051549 | 55 | 96 | 0.0 | 1.0 | 0.00 | 0.00 | 0.00 | 84 | 1014.1 |
| 20260509051049 | 56 | 96 | 0.0 | 1.0 | 0.00 | 0.00 | 0.00 | 83 | 1014.2 |
| 20260509050550 | 57 | 96 | 0.0 | 1.0 | 0.00 | 0.00 | 0.00 | 82 | 1014.2 |
| 20260509050146 | 57 | 96 | 0.0 | 1.0 | 0.00 | 0.00 | 0.00 | 82 | 1014.2 |
| 20260509045548 | 57 | 96 | 0.0 | 1.0 | 0.00 | 0.00 | 0.00 | 82 | 1014.1 |
| 20260509045047 | 57 | 96 | 0.0 | 0.0 | 0.00 | 0.00 | 0.00 | 82 | 1014.3 |
| 20260509044551 | 57 | 96 | 0.0 | 1.0 | 0.00 | 0.00 | 0.00 | 82 | 1014.3 |
| 20260509044048 | 57 | 96 | 0.0 | 1.0 | 0.00 | 0.00 | 0.00 | 82 | 1014.4 |
| 20260509043548 | 57 | 96 | 0.0 | 3.0 | 0.00 | 0.00 | 0.00 | 81 | 1014.6 |
| 20260509043047 | 57 | 96 | 1.0 | 3.0 | 0.00 | 0.00 | 0.00 | 81 | 1014.6 |
| 20260509042547 | 57 | 96 | 0.0 | 2.0 | 0.00 | 0.00 | 0.00 | 81 | 1014.6 |
| 20260509042049 | 57 | 96 | 0.0 | 2.0 | 0.00 | 0.00 | 0.00 | 81 | 1014.6 |
| 20260509041548 | 57 | 96 | 0.0 | 2.0 | 0.00 | 0.00 | 0.00 | 81 | 1014.5 |
| 20260509041048 | 57 | 96 | 0.0 | 2.0 | 0.00 | 0.00 | 0.00 | 81 | 1014.5 |
| 20260509040548 | 57 | 96 | 0.0 | 1.0 | 0.00 | 0.00 | 0.00 | 81 | 1014.5 |
| 20260509040148 | 57 | 96 | 0.0 | 0.0 | 0.00 | 0.00 | 0.00 | 81 | 1014.5 |
| 20260509035546 | 57 | 96 | 0.0 | 0.0 | 0.00 | 0.00 | 0.00 | 81 | 1014.5 |
| 20260509035045 | 57 | 96 | 0.0 | 2.0 | 0.00 | 0.00 | 0.00 | 80 | 1014.6 |
| 20260509034557 | 58 | 96 | 0.0 | 2.0 | 0.00 | 0.00 | 0.00 | 80 | 1014.7 |
| 20260509034145 | 58 | 96 | 0.0 | 3.0 | 0.00 | 0.00 | 0.00 | 79 | 1014.6 |
| 20260509033544 | 58 | 96 | 1.0 | 4.0 | 0.00 | 0.00 | 0.00 | 78 | 1014.6 |
| 20260509033045 | 58 | 96 | 1.0 | 6.0 | 0.00 | 0.00 | 0.00 | 78 | 1014.6 |
| 20260509032545 | 59 | 96 | 1.0 | 6.0 | 0.00 | 0.00 | 0.00 | 78 | 1014.7 |
| 20260509032044 | 59 | 96 | 2.0 | 4.0 | 0.00 | 0.00 | 0.00 | 77 | 1014.7 |
| 20260509031555 | 59 | 96 | 2.0 | 4.0 | 0.00 | 0.00 | 0.00 | 76 | 1014.6 |
| 20260509031044 | 59 | 96 | 1.0 | 4.0 | 0.00 | 0.00 | 0.00 | 76 | 1014.7 |
| 20260509030548 | 59 | 96 | 0.0 | 3.0 | 0.00 | 0.00 | 0.00 | 76 | 1014.6 |
| 20260509030144 | 60 | 96 | 1.0 | 3.0 | 0.00 | 0.00 | 0.00 | 75 | 1014.7 |
| 20260509025543 | 60 | 96 | 1.0 | 3.0 | 0.00 | 0.00 | 0.00 | 75 | 1014.7 |
| 20260509025043 | 60 | 96 | 2.0 | 3.0 | 0.00 | 0.00 | 0.00 | 75 | 1014.6 |
| 20260509024543 | 60 | 96 | 1.0 | 6.0 | 0.00 | 0.00 | 0.00 | 75 | 1014.6 |
| 20260509024043 | 60 | 96 | 2.0 | 6.0 | 0.00 | 0.00 | 0.00 | 75 | 1014.6 |
| 20260509023542 | 60 | 96 | 2.0 | 6.0 | 0.00 | 0.00 | 0.00 | 75 | 1014.7 |
| 20260509023054 | 60 | 96 | 3.0 | 8.0 | 0.00 | 0.00 | 0.00 | 75 | 1014.7 |
| 20260509022543 | 60 | 96 | 3.0 | 8.0 | 0.00 | 0.00 | 0.00 | 75 | 1014.8 |
| 20260509022043 | 60 | 96 | 4.0 | 7.0 | 0.00 | 0.00 | 0.00 | 74 | 1014.8 |
| 20260509021543 | 60 | 96 | 1.0 | 4.0 | 0.00 | 0.00 | 0.00 | 74 | 1014.8 |
| 20260509021044 | 60 | 96 | 2.0 | 4.0 | 0.00 | 0.00 | 0.00 | 74 | 1014.7 |
| 20260509020544 | 60 | 96 | 2.0 | 4.0 | 0.00 | 0.00 | 0.00 | 73 | 1014.6 |
| 20260509020142 | 60 | 96 | 0.0 | 6.0 | 0.00 | 0.00 | 0.00 | 73 | 1014.6 |
| 20260509015546 | 60 | 96 | 1.0 | 7.0 | 0.00 | 0.00 | 0.00 | 73 | 1014.7 |
| 20260509015044 | 60 | 96 | 4.0 | 7.0 | 0.00 | 0.00 | 0.00 | 73 | 1014.6 |
| 20260509014546 | 61 | 96 | 4.0 | 7.0 | 0.00 | 0.00 | 0.00 | 72 | 1014.4 |
| 20260509014046 | 61 | 96 | 3.0 | 7.0 | 0.00 | 0.00 | 0.00 | 72 | 1014.6 |
| 20260509013543 | 61 | 96 | 2.0 | 7.0 | 0.00 | 0.00 | 0.00 | 72 | 1014.4 |
| 20260509013106 | 61 | 96 | 3.0 | 8.0 | 0.00 | 0.00 | 0.00 | 72 | 1014.5 |
| 20260509012543 | 61 | 96 | 2.0 | 8.0 | 0.00 | 0.00 | 0.00 | 72 | 1014.5 |
| 20260509012044 | 61 | 96 | 1.0 | 8.0 | 0.00 | 0.00 | 0.00 | 71 | 1014.5 |
| 20260509011543 | 61 | 96 | 3.0 | 8.0 | 0.00 | 0.00 | 0.00 | 70 | 1014.5 |
| 20260509011043 | 62 | 96 | 3.0 | 6.0 | 0.00 | 0.00 | 0.00 | 70 | 1014.5 |
| 20260509010543 | 62 | 96 | 1.0 | 4.0 | 0.00 | 0.00 | 0.00 | 69 | 1014.2 |
| 20260509010144 | 62 | 96 | 2.0 | 4.0 | 0.00 | 0.00 | 0.00 | 68 | 1014.4 |
| 20260509005543 | 62 | 96 | 1.0 | 4.0 | 0.00 | 0.00 | 0.00 | 68 | 1014.4 |
| 20260509005043 | 62 | 96 | 2.0 | 4.0 | 0.00 | 0.00 | 0.00 | 68 | 1014.4 |
| 20260509004542 | 62 | 96 | 1.0 | 3.0 | 0.00 | 0.00 | 0.00 | 68 | 1014.4 |
| 20260509004042 | 63 | 96 | 0.0 | 2.0 | 0.00 | 0.00 | 0.00 | 67 | 1014.2 |
| 20260509003542 | 63 | 96 | 0.0 | 6.0 | 0.00 | 0.00 | 0.00 | 67 | 1014.3 |
| 20260509003042 | 63 | 96 | 2.0 | 6.0 | 0.00 | 0.00 | 0.00 | 67 | 1014.3 |
| 20260509002543 | 63 | 96 | 1.0 | 3.0 | 0.00 | 0.00 | 0.00 | 66 | 1014.2 |